| time (UTC) | temp C | wind direction | speed KPH | gust KPH | rain 1hr cm | rain 24hr cm | rain mn cm | humidity % | barometer mb |
| 20260905135405 | 16 | 316 | 6.4 | 16.1 | 0.00 | 0.00 | 0.00 | 69 | 1000.0 |
| 20260905134904 | 16 | 358 | 8.0 | 16.1 | 0.00 | 0.00 | 0.00 | 68 | 1000.0 |
| 20260905134625 | 16 | 34 | 6.4 | 17.7 | 0.00 | 0.00 | 0.00 | 68 | 1000.0 |
| 20260905133905 | 16 | 351 | 6.4 | 19.3 | 0.00 | 0.00 | 0.00 | 69 | 1000.0 |
| 20260905133405 | 16 | 320 | 9.7 | 19.3 | 0.00 | 0.00 | 0.00 | 68 | 999.8 |
| 20260905132904 | 17 | 10 | 11.3 | 16.1 | 0.00 | 0.00 | 0.00 | 66 | 999.9 |
| 20260905132634 | 17 | 269 | 6.4 | 19.3 | 0.00 | 0.00 | 0.00 | 66 | 999.7 |
| 20260905131904 | 17 | 258 | 4.8 | 19.3 | 0.00 | 0.00 | 0.00 | 68 | 999.6 |
| 20260905131404 | 17 | 282 | 9.7 | 19.3 | 0.00 | 0.00 | 0.00 | 67 | 999.5 |
| 20260905130903 | 17 | 320 | 9.7 | 19.3 | 0.00 | 0.00 | 0.00 | 66 | 999.6 |
| 20260905130627 | 17 | 310 | 9.7 | 14.5 | 0.00 | 0.00 | 0.00 | 65 | 999.5 |
| 20260905125903 | 17 | 303 | 8.0 | 17.7 | 0.00 | 0.00 | 0.00 | 64 | 999.5 |
| 20260905125632 | 17 | 329 | 8.0 | 19.3 | 0.00 | 0.00 | 0.00 | 66 | 999.5 |
| 20260905125123 | 17 | 292 | 9.7 | 20.9 | 0.00 | 0.00 | 0.00 | 66 | 999.4 |
| 20260905124403 | 17 | 276 | 8.0 | 20.9 | 0.00 | 0.00 | 0.00 | 67 | 999.4 |
| 20260905123903 | 17 | 285 | 4.8 | 22.5 | 0.00 | 0.00 | 0.00 | 67 | 999.3 |
| 20260905123403 | 17 | 314 | 12.9 | 22.5 | 0.00 | 0.00 | 0.00 | 66 | 999.3 |
| 20260905122904 | 17 | 323 | 6.4 | 22.5 | 0.00 | 0.00 | 0.00 | 68 | 999.2 |
| 20260905122404 | 17 | 317 | 12.9 | 22.5 | 0.00 | 0.00 | 0.00 | 67 | 999.2 |
| 20260905121903 | 16 | 271 | 6.4 | 20.9 | 0.00 | 0.00 | 0.00 | 66 | 999.2 |
| 20260905121404 | 17 | 292 | 9.7 | 20.9 | 0.00 | 0.00 | 0.00 | 65 | 999.1 |
| 20260905120903 | 17 | 310 | 9.7 | 27.4 | 0.00 | 0.00 | 0.00 | 65 | 999.1 |
| 20260905120403 | 17 | 0 | 8.0 | 27.4 | 0.00 | 0.00 | 0.00 | 66 | 999.1 |
| 20260905120350 | 18 | 313 | 9.7 | 16.1 | 0.00 | 0.00 | 0.00 | 63 | 999.1 |
| 20260905115403 | 18 | 341 | 8.0 | 19.3 | 0.00 | 0.00 | 0.00 | 63 | 999.0 |
| 20260905114905 | 17 | 296 | 11.3 | 19.3 | 0.00 | 0.00 | 0.00 | 65 | 998.9 |
| 20260905114404 | 17 | 321 | 8.0 | 22.5 | 0.00 | 0.00 | 0.00 | 64 | 998.9 |
| 20260905113904 | 17 | 323 | 9.7 | 22.5 | 0.00 | 0.00 | 0.00 | 64 | 998.8 |
| 20260905113404 | 17 | 348 | 8.0 | 17.7 | 0.00 | 0.00 | 0.00 | 63 | 998.9 |
| 20260905112903 | 17 | 271 | 9.7 | 17.7 | 0.00 | 0.00 | 0.00 | 64 | 998.8 |
| 20260905112403 | 17 | 289 | 8.0 | 20.9 | 0.00 | 0.00 | 0.00 | 64 | 998.7 |
| 20260905111903 | 17 | 275 | 9.7 | 20.9 | 0.00 | 0.00 | 0.00 | 64 | 998.6 |
| 20260905111846 | 17 | 299 | 12.9 | 20.9 | 0.00 | 0.00 | 0.00 | 63 | 998.7 |
| 20260905110903 | 17 | 288 | 11.3 | 20.9 | 0.00 | 0.00 | 0.00 | 63 | 998.7 |
| 20260905110403 | 17 | 303 | 9.7 | 20.9 | 0.00 | 0.00 | 0.00 | 63 | 998.7 |
| 20260905105903 | 17 | 292 | 12.9 | 25.7 | 0.00 | 0.00 | 0.00 | 64 | 998.4 |
| 20260905105404 | 17 | 204 | 9.7 | 25.7 | 0.00 | 0.00 | 0.00 | 66 | 998.4 |
| 20260905104903 | 17 | 320 | 12.9 | 19.3 | 0.00 | 0.00 | 0.00 | 66 | 998.4 |
| 20260905104403 | 17 | 313 | 9.7 | 14.5 | 0.00 | 0.00 | 0.00 | 66 | 998.3 |
| 20260905104131 | 17 | 259 | 6.4 | 14.5 | 0.00 | 0.00 | 0.00 | 67 | 998.3 |
| 20260905103403 | 16 | 343 | 8.0 | 14.5 | 0.00 | 0.00 | 0.00 | 66 | 998.2 |
| 20260905103127 | 16 | 279 | 8.0 | 11.3 | 0.00 | 0.00 | 0.00 | 66 | 998.2 |
| 20260905102403 | 16 | 326 | 9.7 | 16.1 | 0.00 | 0.00 | 0.00 | 71 | 998.1 |
| 20260905101904 | 17 | 307 | 11.3 | 16.1 | 0.00 | 0.00 | 0.00 | 71 | 998.1 |
| 20260905101845 | 17 | 18 | 9.7 | 16.1 | 0.00 | 0.00 | 0.00 | 71 | 998.1 |
| 20260905100904 | 16 | 10 | 6.4 | 8.0 | 0.00 | 0.00 | 0.00 | 70 | 998.1 |
| 20260905100403 | 16 | 329 | 4.8 | 16.1 | 0.00 | 0.00 | 0.00 | 70 | 997.9 |
| 20260905095903 | 16 | 296 | 16.1 | 16.1 | 0.00 | 0.00 | 0.00 | 70 | 997.9 |
| 20260905095622 | 16 | 313 | 11.3 | 16.1 | 0.00 | 0.00 | 0.00 | 70 | 997.8 |
| 20260905094905 | -17 | 319 | 9.7 | 11.3 | 0.00 | 0.00 | 0.00 | 997.9 | |
| 20260905094404 | 16 | 0 | 3.2 | 14.5 | 0.00 | 0.00 | 0.00 | 73 | 997.8 |
| 20260905093904 | 16 | 358 | 9.7 | 14.5 | 0.00 | 0.00 | 0.00 | 73 | 997.8 |
| 20260905093404 | 16 | 350 | 6.4 | 9.7 | 0.00 | 0.00 | 0.00 | 73 | 997.8 |
| 20260905093122 | 16 | 13 | 3.2 | 17.7 | 0.00 | 0.00 | 0.00 | 73 | 997.8 |
| 20260905092404 | 16 | 312 | 8.0 | 17.7 | 0.00 | 0.00 | 0.00 | 73 | 997.8 |
| 20260905091903 | 16 | 4 | 8.0 | 14.5 | 0.00 | 0.00 | 0.00 | 73 | 997.7 |
| 20260905091403 | 16 | 32 | 4.8 | 11.3 | 0.00 | 0.00 | 0.00 | 76 | 997.7 |
| 20260905090903 | 16 | 358 | 6.4 | 11.3 | 0.00 | 0.00 | 0.00 | 75 | 997.6 |
| 20260905090403 | 15 | 300 | 6.4 | 9.7 | 0.00 | 0.00 | 0.00 | 76 | 997.7 |
| 20260905090121 | 15 | 323 | 6.4 | 9.7 | 0.00 | 0.00 | 0.00 | 77 | 997.6 |
| 20260905085404 | 15 | 0 | 3.2 | 11.3 | 0.00 | 0.00 | 0.00 | 79 | 997.5 |
| 20260905084904 | 15 | 357 | 4.8 | 11.3 | 0.00 | 0.00 | 0.00 | 80 | 997.6 |
| 20260905084403 | 15 | 351 | 8.0 | 14.5 | 0.00 | 0.00 | 0.00 | 79 | 997.5 |
| 20260905083903 | 15 | 0 | 8.0 | 14.5 | 0.00 | 0.00 | 0.00 | 81 | 997.4 |
| 20260905083404 | 15 | 0 | 6.4 | 11.3 | 0.00 | 0.00 | 0.00 | 81 | 997.4 |
| 20260905082903 | 14 | 317 | 6.4 | 16.1 | 0.00 | 0.00 | 0.00 | 84 | 997.4 |
| 20260905082403 | 14 | 333 | 8.0 | 16.1 | 0.00 | 0.00 | 0.00 | 84 | 997.3 |
| 20260905081903 | 13 | 321 | 4.8 | 14.5 | 0.00 | 0.00 | 0.00 | 86 | 997.3 |
| 20260905081401 | 13 | 0 | 6.4 | 14.5 | 0.00 | 0.00 | 0.00 | 87 | 997.3 |
| 20260905081355 | 13 | 0 | 4.8 | 9.7 | 0.00 | 0.00 | 0.00 | 87 | 997.2 |
| 20260905080624 | 13 | 28 | 3.2 | 9.7 | 0.00 | 0.00 | 0.00 | 88 | 997.3 |
| 20260905075904 | 13 | 343 | 0.0 | 9.7 | 0.00 | 0.00 | 0.00 | 88 | 997.1 |
| 20260905075404 | 13 | 357 | 4.8 | 9.7 | 0.00 | 0.00 | 0.00 | 89 | 997.1 |
| 20260905074903 | 13 | 7 | 3.2 | 9.7 | 0.00 | 0.00 | 0.00 | 89 | 997.0 |
| 20260905074403 | 13 | 323 | 4.8 | 8.0 | 0.00 | 0.00 | 0.00 | 89 | 997.0 |
| 20260905073904 | 12 | 331 | 4.8 | 9.7 | 0.00 | 0.00 | 0.00 | 89 | 997.0 |
| 20260905073624 | 12 | 302 | 4.8 | 14.5 | 0.00 | 0.00 | 0.00 | 90 | 996.9 |
| 20260905072904 | 12 | 319 | 6.4 | 14.5 | 0.00 | 0.00 | 0.00 | 90 | 996.7 |
| 20260905072633 | 12 | 316 | 4.8 | 8.0 | 0.00 | 0.00 | 0.00 | 91 | 996.7 |
| 20260905071903 | 12 | 0 | 3.2 | 8.0 | 0.00 | 0.00 | 0.00 | 91 | 996.7 |
| 20260905071404 | 12 | 312 | 4.8 | 8.0 | 0.00 | 0.00 | 0.00 | 91 | 996.6 |
| 20260905070903 | 12 | 323 | 1.6 | 8.0 | 0.00 | 0.00 | 0.00 | 90 | 996.6 |
| 20260905070403 | 12 | 338 | 1.6 | 8.0 | 0.00 | 0.00 | 0.00 | 90 | 996.5 |
| 20260905065903 | 12 | 298 | 3.2 | 11.3 | 0.00 | 0.00 | 0.00 | 90 | 996.5 |
| 20260905065403 | 12 | 285 | 3.2 | 11.3 | 0.00 | 0.00 | 0.00 | 90 | 996.3 |
| 20260905064903 | 12 | 17 | 3.2 | 6.4 | 0.00 | 0.00 | 0.00 | 90 | 996.3 |
| 20260905064403 | 12 | 17 | 1.6 | 9.7 | 0.00 | 0.00 | 0.00 | 90 | 996.3 |
| 20260905063903 | 12 | 0 | 1.6 | 9.7 | 0.00 | 0.00 | 0.00 | 90 | 996.1 |
| 20260905063403 | 12 | 4 | 1.6 | 3.2 | 0.00 | 0.00 | 0.00 | 91 | 996.1 |
| 20260905062903 | 12 | 4 | 1.6 | 6.4 | 0.00 | 0.00 | 0.00 | 91 | 996.1 |
| 20260905062629 | 12 | 4 | 0.0 | 6.4 | 0.00 | 0.00 | 0.00 | 91 | 996.0 |
| 20260905061903 | 12 | 21 | 3.2 | 6.4 | 0.00 | 0.00 | 0.00 | 91 | 996.0 |
| 20260905061404 | 12 | 3 | 3.2 | 6.4 | 0.00 | 0.00 | 0.00 | 91 | 995.9 |
| 20260905061354 | 12 | 144 | 0.0 | 4.8 | 0.00 | 0.00 | 0.00 | 91 | 995.9 |
| 20260905060402 | 12 | 21 | 0.0 | 4.8 | 0.00 | 0.00 | 0.00 | 91 | 995.8 |
| 20260905055903 | 12 | 21 | 0.0 | 4.8 | 0.00 | 0.00 | 0.00 | 92 | 995.8 |
| 20260905055404 | 11 | 24 | 1.6 | 6.4 | 0.00 | 0.00 | 0.00 | 92 | 995.7 |
| 20260905054904 | 11 | 24 | 1.6 | 6.4 | 0.00 | 0.00 | 0.00 | 92 | 995.6 |
| 20260905054404 | 11 | 24 | 1.6 | 6.4 | 0.00 | 0.00 | 0.00 | 92 | 995.6 |
| 20260905053904 | 11 | 25 | 0.0 | 6.4 | 0.00 | 0.00 | 0.00 | 92 | 995.6 |
| 20260905053401 | 11 | 24 | 3.2 | 6.4 | 0.00 | 0.00 | 0.00 | 92 | 995.6 |
| 20260905052901 | 11 | 24 | 4.8 | 6.4 | 0.00 | 0.00 | 0.00 | 92 | 995.5 |
| 20260905052401 | 11 | 24 | 3.2 | 6.4 | 0.00 | 0.00 | 0.00 | 92 | 995.5 |
| 20260905051902 | 11 | 25 | 1.6 | 6.4 | 0.00 | 0.00 | 0.00 | 92 | 995.4 |
| 20260905051358 | 11 | 34 | 1.6 | 8.0 | 0.00 | 0.00 | 0.00 | 92 | 995.5 |
| 20260905050859 | 11 | 20 | 3.2 | 9.7 | 0.00 | 0.00 | 0.00 | 92 | 995.4 |
| 20260905050357 | 11 | 30 | 4.8 | 8.0 | 0.00 | 0.00 | 0.00 | 92 | 995.4 |
| 20260905045857 | 11 | 35 | 1.6 | 6.4 | 0.00 | 0.00 | 0.00 | 92 | 995.4 |
| 20260905045620 | 11 | 35 | 1.6 | 6.4 | 0.00 | 0.00 | 0.00 | 92 | 995.3 |
| 20260905044857 | 11 | 35 | 1.6 | 9.7 | 0.00 | 0.00 | 0.00 | 92 | 995.3 |
| 20260905044350 | 11 | 37 | 3.2 | 9.7 | 0.00 | 0.00 | 0.00 | 92 | 995.2 |
| 20260905043847 | 11 | 20 | 1.6 | 6.4 | 0.00 | 0.00 | 0.00 | 92 | 995.1 |
| 20260905043347 | 11 | 35 | 1.6 | 6.4 | 0.00 | 0.00 | 0.00 | 92 | 995.1 |
| 20260905043054 | 11 | 30 | 3.2 | 6.4 | 0.00 | 0.00 | 0.00 | 92 | 995.1 |
| 20260905042332 | 11 | 30 | 0.0 | 6.4 | 0.00 | 0.00 | 0.00 | 92 | 995.0 |
| 20260905041832 | 11 | 6 | 1.6 | 6.4 | 0.00 | 0.00 | 0.00 | 92 | 995.1 |
| 20260905041551 | 11 | 0 | 0.0 | 6.4 | 0.00 | 0.00 | 0.00 | 92 | 995.1 |
| 20260905040831 | 11 | 350 | 3.2 | 8.0 | 0.00 | 0.00 | 0.00 | 91 | 995.0 |
| 20260905040332 | 11 | 0 | 1.6 | 8.0 | 0.00 | 0.00 | 0.00 | 91 | 994.9 |
| 20260905035832 | 11 | 23 | 4.8 | 8.0 | 0.00 | 0.00 | 0.00 | 92 | 994.9 |
| 20260905035331 | 11 | 358 | 1.6 | 4.8 | 0.00 | 0.00 | 0.00 | 92 | 994.9 |
| 20260905034830 | 11 | 17 | 3.2 | 6.4 | 0.00 | 0.00 | 0.00 | 92 | 994.8 |
| 20260905034323 | 11 | 17 | 0.0 | 6.4 | 0.00 | 0.00 | 0.00 | 92 | 994.8 |
| 20260905034042 | 11 | 13 | 1.6 | 4.8 | 0.00 | 0.00 | 0.00 | 92 | 994.7 |
| 20260905033321 | 11 | 44 | 0.0 | 3.2 | 0.00 | 0.00 | 0.00 | 92 | 994.7 |
| 20260905032816 | 11 | 44 | 0.0 | 4.8 | 0.00 | 0.00 | 0.00 | 92 | 994.7 |
| 20260905032317 | 11 | 44 | 0.0 | 6.4 | 0.00 | 0.00 | 0.00 | 92 | 994.7 |
| 20260905031817 | 11 | 44 | 1.6 | 6.4 | 0.00 | 0.00 | 0.00 | 93 | 994.6 |
| 20260905031318 | 11 | 44 | 3.2 | 6.4 | 0.00 | 0.00 | 0.00 | 93 | 994.6 |
| 20260905030812 | 11 | 44 | 3.2 | 6.4 | 0.00 | 0.00 | 0.00 | 93 | 994.6 |
| 20260905030313 | 11 | 44 | 3.2 | 6.4 | 0.00 | 0.00 | 0.00 | 93 | 994.5 |
| 20260905025810 | 11 | 45 | 1.6 | 4.8 | 0.00 | 0.00 | 0.00 | 93 | 994.5 |
| 20260905025313 | 11 | 47 | 1.6 | 6.4 | 0.00 | 0.00 | 0.00 | 93 | 994.4 |
| 20260905024805 | 11 | 47 | 3.2 | 6.4 | 0.00 | 0.00 | 0.00 | 93 | 994.4 |
| 20260905024303 | 11 | 38 | 3.2 | 6.4 | 0.00 | 0.00 | 0.00 | 93 | 994.4 |
| 20260905023806 | 11 | 38 | 1.6 | 6.4 | 0.00 | 0.00 | 0.00 | 93 | 994.4 |
| 20260905023301 | 11 | 37 | 3.2 | 6.4 | 0.00 | 0.00 | 0.00 | 93 | 994.3 |
| 20260905022802 | 11 | 37 | 3.2 | 6.4 | 0.00 | 0.00 | 0.00 | 93 | 994.3 |
| 20260905022305 | 11 | 37 | 3.2 | 6.4 | 0.00 | 0.00 | 0.00 | 93 | 994.3 |
| 20260905021803 | 11 | 32 | 3.2 | 8.0 | 0.00 | 0.00 | 0.00 | 93 | 994.2 |
| 20260905021303 | 11 | 34 | 6.4 | 9.7 | 0.00 | 0.00 | 0.00 | 93 | 994.2 |
| 20260905020802 | 11 | 51 | 6.4 | 9.7 | 0.00 | 0.00 | 0.00 | 93 | 994.1 |
| 20260905020302 | 11 | 25 | 6.4 | 9.7 | 0.00 | 0.00 | 0.00 | 93 | 994.0 |
| 20260905015802 | 11 | 39 | 3.2 | 9.7 | 0.00 | 0.00 | 0.00 | 93 | 994.0 |
| 20260905015306 | 11 | 59 | 4.8 | 9.7 | 0.00 | 0.00 | 0.00 | 93 | 994.0 |
| 20260905014802 | 11 | 52 | 3.2 | 9.7 | 0.00 | 0.00 | 0.00 | 93 | 994.0 |
| 20260905014522 | 11 | 54 | 3.2 | 9.7 | 0.00 | 0.00 | 0.00 | 93 | 994.0 |
| 20260905014026 | 11 | 31 | 4.8 | 9.7 | 0.00 | 0.00 | 0.00 | 93 | 993.9 |
| 20260905013302 | 11 | 48 | 4.8 | 9.7 | 0.00 | 0.00 | 0.00 | 93 | 993.9 |
| 20260905012801 | 11 | 32 | 6.4 | 9.7 | 0.00 | 0.00 | 0.00 | 93 | 994.0 |
| 20260905012301 | 11 | 31 | 3.2 | 9.7 | 0.00 | 0.00 | 0.00 | 93 | 993.9 |
| 20260905011801 | 11 | 35 | 4.8 | 8.0 | 0.00 | 0.00 | 0.00 | 93 | 994.0 |
| 20260905011301 | 12 | 32 | 4.8 | 8.0 | 0.00 | 0.00 | 0.00 | 93 | 993.9 |
| 20260905011020 | 12 | 42 | 3.2 | 9.7 | 0.00 | 0.00 | 0.00 | 93 | 993.9 |
| 20260905010301 | 12 | 54 | 6.4 | 9.7 | 0.00 | 0.00 | 0.00 | 93 | 993.8 |
| 20260905005801 | 11 | 52 | 3.2 | 8.0 | 0.00 | 0.00 | 0.00 | 93 | 993.8 |
| 20260905005300 | 11 | 47 | 3.2 | 9.7 | 0.00 | 0.00 | 0.00 | 94 | 993.8 |
| 20260905005019 | 11 | 61 | 6.4 | 9.7 | 0.00 | 0.00 | 0.00 | 93 | 993.8 |
| 20260905004301 | 11 | 73 | 6.4 | 9.7 | 0.00 | 0.00 | 0.00 | 93 | 993.8 |
| 20260905003801 | 11 | 76 | 6.4 | 9.7 | 0.00 | 0.00 | 0.00 | 93 | 993.8 |
| 20260905003301 | 11 | 41 | 3.2 | 8.0 | 0.00 | 0.00 | 0.00 | 93 | 993.8 |
| 20260905002800 | 11 | 25 | 3.2 | 8.0 | 0.00 | 0.00 | 0.00 | 93 | 993.8 |
| 20260905002300 | 11 | 41 | 3.2 | 11.3 | 0.00 | 0.00 | 0.00 | 93 | 993.8 |
| 20260905001801 | 11 | 38 | 1.6 | 11.3 | 0.00 | 0.00 | 0.00 | 93 | 993.8 |
| 20260905001301 | 11 | 63 | 4.8 | 11.3 | 0.00 | 0.00 | 0.00 | 93 | 993.9 |
| 20260905001020 | 11 | 71 | 3.2 | 11.3 | 0.00 | 0.00 | 0.00 | 93 | 993.9 |
| 20260905000300 | 11 | 31 | 4.8 | 8.0 | 0.00 | 0.00 | 0.00 | 93 | 993.9 |
| 20260904235759 | 11 | 44 | 1.6 | 6.4 | 0.00 | 0.00 | 0.00 | 93 | 993.8 |
| 20260904235527 | 11 | 49 | 3.2 | 8.0 | 0.00 | 0.00 | 0.00 | 93 | 993.9 |
| 20260904234801 | 11 | 71 | 4.8 | 8.0 | 0.00 | 0.00 | 0.00 | 93 | 993.9 |
| 20260904234259 | 11 | 38 | 3.2 | 6.4 | 0.00 | 0.00 | 0.00 | 93 | 993.9 |
| 20260904233800 | 11 | 48 | 3.2 | 6.4 | 0.00 | 0.00 | 0.00 | 93 | 993.9 |
| 20260904233259 | 11 | 56 | 1.6 | 4.8 | 0.00 | 0.00 | 0.00 | 93 | 994.0 |
| 20260904232804 | 11 | 56 | 6.4 | 8.0 | 0.00 | 0.00 | 0.00 | 93 | 994.0 |
| 20260904232758 | 11 | 56 | 1.6 | 8.0 | 0.00 | 0.00 | 0.00 | 93 | 994.0 |
| 20260904231759 | 11 | 66 | 3.2 | 6.4 | 0.00 | 0.00 | 0.00 | 94 | 994.0 |
| 20260904231258 | 11 | 103 | 3.2 | 11.3 | 0.00 | 0.00 | 0.00 | 94 | 993.9 |
| 20260904230759 | 11 | 49 | 3.2 | 11.3 | 0.00 | 0.00 | 0.00 | 94 | 993.9 |
| 20260904230258 | 11 | 80 | 6.4 | 11.3 | 0.00 | 0.00 | 0.00 | 94 | 993.9 |
| 20260904225759 | 11 | 76 | 4.8 | 8.0 | 0.00 | 0.00 | 0.00 | 94 | 993.8 |
| 20260904225259 | 11 | 66 | 3.2 | 8.0 | 0.00 | 0.00 | 0.00 | 94 | 993.8 |
| 20260904224758 | 11 | 82 | 3.2 | 11.3 | 0.00 | 0.00 | 0.00 | 94 | 993.8 |
| 20260904224258 | 11 | 56 | 4.8 | 11.3 | 0.00 | 0.00 | 0.00 | 94 | 993.9 |
| 20260904224015 | 11 | 62 | 4.8 | 9.7 | 0.00 | 0.00 | 0.00 | 94 | 993.9 |
| 20260904223516 | 11 | 61 | 6.4 | 9.7 | 0.00 | 0.00 | 0.00 | 94 | 993.8 |
| 20260904222757 | 11 | 66 | 4.8 | 8.0 | 0.00 | 0.00 | 0.00 | 94 | 994.0 |
| 20260904222257 | 11 | 65 | 4.8 | 8.0 | 0.00 | 0.00 | 0.00 | 93 | 994.0 |
| 20260904221758 | 11 | 82 | 3.2 | 9.7 | 0.00 | 0.00 | 0.00 | 93 | 994.0 |
| 20260904221257 | 11 | 66 | 4.8 | 9.7 | 0.00 | 0.00 | 0.00 | 93 | 994.1 |
| 20260904220757 | 11 | 94 | 4.8 | 8.0 | 0.00 | 0.00 | 0.00 | 93 | 994.2 |
| 20260904220257 | 11 | 107 | 6.4 | 9.7 | 0.00 | 0.00 | 0.00 | 93 | 994.2 |
| 20260904215758 | 11 | 92 | 6.4 | 9.7 | 0.00 | 0.00 | 0.00 | 93 | 994.3 |
| 20260904215257 | 11 | 106 | 3.2 | 4.8 | 0.00 | 0.00 | 0.00 | 93 | 994.4 |
| 20260904214757 | 11 | 128 | 1.6 | 4.8 | 0.00 | 0.00 | 0.00 | 93 | 994.4 |
| 20260904214257 | 11 | 138 | 0.0 | 6.4 | 0.00 | 0.00 | 0.00 | 93 | 994.5 |
| 20260904213757 | 11 | 71 | 1.6 | 6.4 | 0.00 | 0.00 | 0.00 | 93 | 994.4 |
| 20260904213257 | 11 | 125 | 3.2 | 6.4 | 0.00 | 0.00 | 0.00 | 93 | 994.5 |
| 20260904212756 | 11 | 86 | 3.2 | 6.4 | 0.00 | 0.00 | 0.00 | 93 | 994.5 |
| 20260904212256 | 11 | 69 | 3.2 | 8.0 | 0.00 | 0.00 | 0.00 | 93 | 994.5 |
| 20260904211756 | 11 | 83 | 3.2 | 8.0 | 0.00 | 0.00 | 0.00 | 93 | 994.5 |
| 20260904211256 | 11 | 134 | 3.2 | 8.0 | 0.00 | 0.00 | 0.00 | 93 | 994.5 |
| 20260904210756 | 11 | 93 | 3.2 | 6.4 | 0.00 | 0.00 | 0.00 | 93 | 994.5 |
| 20260904210256 | 11 | 47 | 0.0 | 6.4 | 0.00 | 0.00 | 0.00 | 93 | 994.5 |
| 20260904210012 | 11 | 45 | 3.2 | 6.4 | 0.00 | 0.00 | 0.00 | 93 | 994.6 |
| 20260904205256 | 11 | 45 | 1.6 | 4.8 | 0.00 | 0.00 | 0.00 | 93 | 994.5 |
| 20260904204755 | 11 | 45 | 1.6 | 6.4 | 0.00 | 0.00 | 0.00 | 93 | 994.5 |
| 20260904204515 | 11 | 97 | 3.2 | 6.4 | 0.00 | 0.00 | 0.00 | 93 | 994.5 |
| 20260904203755 | 11 | 66 | 3.2 | 9.7 | 0.00 | 0.00 | 0.00 | 93 | 994.7 |
| 20260904203255 | 11 | 82 | 6.4 | 9.7 | 0.00 | 0.00 | 0.00 | 93 | 994.6 |
| 20260904202755 | 11 | 113 | 3.2 | 4.8 | 0.00 | 0.00 | 0.00 | 93 | 994.7 |
| 20260904202513 | 11 | 113 | 3.2 | 4.8 | 0.00 | 0.00 | 0.00 | 93 | 994.8 |
| 20260904201755 | 11 | 114 | 1.6 | 6.4 | 0.00 | 0.00 | 0.00 | 93 | 994.8 |
| 20260904201255 | 11 | 96 | 1.6 | 6.4 | 0.00 | 0.00 | 0.00 | 93 | 994.8 |
| 20260904200755 | 11 | 116 | 1.6 | 6.4 | 0.00 | 0.00 | 0.00 | 92 | 994.8 |
| 20260904200515 | 11 | 97 | 3.2 | 6.4 | 0.00 | 0.00 | 0.00 | 93 | 994.8 |
| 20260904195754 | 11 | 110 | 1.6 | 4.8 | 0.00 | 0.00 | 0.00 | 92 | 994.9 |
| 20260904195254 | 11 | 82 | 4.8 | 4.8 | 0.00 | 0.00 | 0.00 | 92 | 994.9 |
| 20260904194755 | 11 | 65 | 1.6 | 4.8 | 0.00 | 0.00 | 0.00 | 92 | 994.9 |
| 20260904194255 | 11 | 56 | 0.0 | 3.2 | 0.00 | 0.00 | 0.00 | 92 | 995.0 |
| 20260904193754 | 11 | 55 | 0.0 | 3.2 | 0.00 | 0.00 | 0.00 | 92 | 995.0 |
| 20260904193254 | 11 | 55 | 0.0 | 3.2 | 0.00 | 0.00 | 0.00 | 92 | 995.1 |
| 20260904192755 | 11 | 55 | 0.0 | 6.4 | 0.00 | 0.00 | 0.00 | 92 | 995.0 |
| 20260904192254 | 11 | 99 | 1.6 | 6.4 | 0.00 | 0.00 | 0.00 | 92 | 995.1 |
| 20260904191753 | 11 | 102 | 1.6 | 9.7 | 0.00 | 0.00 | 0.00 | 92 | 995.1 |
| 20260904191517 | 11 | 73 | 4.8 | 9.7 | 0.00 | 0.00 | 0.00 | 92 | 995.2 |
| 20260904190753 | 11 | 90 | 3.2 | 8.0 | 0.00 | 0.00 | 0.00 | 91 | 995.2 |
| 20260904190745 | 11 | 96 | 3.2 | 8.0 | 0.00 | 0.00 | 0.00 | 91 | 995.2 |
| 20260904190025 | 11 | 69 | 3.2 | 4.8 | 0.00 | 0.00 | 0.00 | 91 | 995.3 |
| 20260904185253 | 11 | 94 | 1.6 | 4.8 | 0.00 | 0.00 | 0.00 | 90 | 995.4 |
| 20260904184753 | 11 | 100 | 0.0 | 3.2 | 0.00 | 0.00 | 0.00 | 90 | 995.4 |
| 20260904184253 | 11 | 100 | 0.0 | 6.4 | 0.00 | 0.00 | 0.00 | 89 | 995.5 |
| 20260904183753 | 11 | 100 | 0.0 | 6.4 | 0.00 | 0.00 | 0.00 | 89 | 995.5 |
| 20260904183252 | 11 | 87 | 1.6 | 6.4 | 0.00 | 0.00 | 0.00 | 89 | 995.6 |
| 20260904183016 | 11 | 94 | 1.6 | 11.3 | 0.00 | 0.00 | 0.00 | 89 | 995.6 |
| 20260904182515 | 11 | 94 | 6.4 | 14.5 | 0.00 | 0.00 | 0.00 | 88 | 995.6 |
| 20260904181753 | 11 | 103 | 8.0 | 14.5 | 0.00 | 0.00 | 0.00 | 88 | 995.6 |
| 20260904181513 | 11 | 71 | 4.8 | 9.7 | 0.00 | 0.00 | 0.00 | 88 | 995.7 |
| 20260904180753 | 11 | 71 | 4.8 | 8.0 | 0.00 | 0.00 | 0.00 | 88 | 995.8 |
| 20260904180518 | 11 | 85 | 3.2 | 11.3 | 0.00 | 0.00 | 0.00 | 87 | 995.8 |
| 20260904180243 | 11 | 147 | 6.4 | 11.3 | 0.00 | 0.00 | 0.00 | 87 | 995.9 |
| 20260904175252 | 12 | 85 | 6.4 | 11.3 | 0.00 | 0.00 | 0.00 | 86 | 995.9 |
| 20260904175240 | 12 | 157 | 4.8 | 8.0 | 0.00 | 0.00 | 0.00 | 86 | 995.9 |
| 20260904174251 | 12 | 145 | 4.8 | 8.0 | 0.00 | 0.00 | 0.00 | 85 | 996.0 |
| 20260904174234 | 12 | 147 | 1.6 | 8.0 | 0.00 | 0.00 | 0.00 | 85 | 996.0 |
| 20260904173251 | 12 | 135 | 4.8 | 9.7 | 0.00 | 0.00 | 0.00 | 84 | 995.9 |
| 20260904173018 | 13 | 137 | 6.4 | 9.7 | 0.00 | 0.00 | 0.00 | 83 | 996.0 |
| 20260904172252 | 13 | 147 | 4.8 | 9.7 | 0.00 | 0.00 | 0.00 | 84 | 996.0 |
| 20260904171751 | 13 | 148 | 0.0 | 14.5 | 0.00 | 0.00 | 0.00 | 85 | 995.9 |
| 20260904171519 | 13 | 196 | 6.4 | 14.5 | 0.00 | 0.00 | 0.00 | 84 | 996.0 |
| 20260904171011 | 13 | 157 | 3.2 | 4.8 | 0.00 | 0.00 | 0.00 | 87 | 995.9 |
| 20260904170251 | 13 | 185 | 3.2 | 4.8 | 0.00 | 0.00 | 0.00 | 87 | 995.9 |
| 20260904165751 | 13 | 175 | 1.6 | 4.8 | 0.00 | 0.00 | 0.00 | 87 | 995.9 |
| 20260904165250 | 14 | 203 | 1.6 | 3.2 | 0.00 | 0.00 | 0.00 | 86 | 995.9 |
| 20260904164751 | 14 | 200 | 1.6 | 3.2 | 0.00 | 0.00 | 0.00 | 85 | 995.9 |
| 20260904164251 | 14 | 196 | 0.0 | 3.2 | 0.00 | 0.00 | 0.00 | 85 | 996.0 |
| 20260904164007 | 14 | 243 | 0.0 | 3.2 | 0.00 | 0.00 | 0.00 | 84 | 995.9 |
| 20260904163249 | 14 | 179 | 0.0 | 0.0 | 0.00 | 0.00 | 0.00 | 83 | 996.0 |
| 20260904162749 | 15 | 179 | 0.0 | 4.8 | 0.00 | 0.00 | 0.00 | 82 | 996.0 |
| 20260904162249 | 15 | 179 | 1.6 | 4.8 | 0.00 | 0.00 | 0.00 | 82 | 996.0 |
| 20260904161749 | 15 | 144 | 0.0 | 1.6 | 0.00 | 0.00 | 0.00 | 82 | 995.9 |
| 20260904161249 | 15 | 144 | 0.0 | 3.2 | 0.00 | 0.00 | 0.00 | 81 | 995.9 |
| 20260904160749 | 15 | 142 | 0.0 | 4.8 | 0.00 | 0.00 | 0.00 | 81 | 995.9 |
| 20260904160735 | 15 | 144 | 1.6 | 6.4 | 0.00 | 0.00 | 0.00 | 80 | 995.9 |
| 20260904155749 | 15 | 130 | 3.2 | 6.4 | 0.00 | 0.00 | 0.00 | 80 | 996.0 |
| 20260904155727 | 15 | 128 | 1.6 | 4.8 | 0.00 | 0.00 | 0.00 | 80 | 996.0 |
| 20260904155008 | 15 | 128 | 1.6 | 4.8 | 0.00 | 0.00 | 0.00 | 81 | 996.0 |
| 20260904154248 | 15 | 128 | 1.6 | 6.4 | 0.00 | 0.00 | 0.00 | 80 | 996.1 |
| 20260904154008 | 15 | 121 | 1.6 | 6.4 | 0.00 | 0.00 | 0.00 | 80 | 996.1 |
| 20260904153248 | 15 | 61 | 1.6 | 3.2 | 0.00 | 0.00 | 0.00 | 81 | 996.2 |
| 20260904152748 | 15 | 61 | 0.0 | 3.2 | 0.00 | 0.00 | 0.00 | 80 | 996.2 |
| 20260904152247 | 15 | 61 | 1.6 | 3.2 | 0.00 | 0.00 | 0.00 | 79 | 996.3 |
| 20260904152008 | 15 | 61 | 1.6 | 3.2 | 0.00 | 0.00 | 0.00 | 79 | 996.3 |
| 20260904151247 | 15 | 61 | 1.6 | 4.8 | 0.00 | 0.00 | 0.00 | 79 | 996.4 |
| 20260904150748 | 15 | 61 | 3.2 | 4.8 | 0.00 | 0.00 | 0.00 | 79 | 996.5 |
| 20260904150247 | 15 | 224 | 1.6 | 3.2 | 0.00 | 0.00 | 0.00 | 80 | 996.4 |
| 20260904145748 | 15 | 224 | 1.6 | 3.2 | 0.00 | 0.00 | 0.00 | 80 | 996.5 |
| 20260904145247 | 15 | 224 | 0.0 | 4.8 | 0.00 | 0.00 | 0.00 | 80 | 996.6 |
| 20260904144748 | 15 | 224 | 0.0 | 4.8 | 0.00 | 0.00 | 0.00 | 79 | 996.7 |
| 20260904144246 | 15 | 213 | 3.2 | 6.4 | 0.00 | 0.00 | 0.00 | 77 | 996.7 |
| 20260904143747 | 16 | 188 | 3.2 | 6.4 | 0.00 | 0.00 | 0.00 | 76 | 996.8 |
| 20260904143506 | 16 | 185 | 1.6 | 4.8 | 0.00 | 0.00 | 0.00 | 75 | 996.7 |
| 20260904142747 | 16 | 238 | 0.0 | 4.8 | 0.00 | 0.00 | 0.00 | 75 | 996.8 |
| 20260904142246 | 16 | 203 | 1.6 | 4.8 | 0.00 | 0.00 | 0.00 | 74 | 996.9 |
| 20260904141747 | 16 | 261 | 1.6 | 8.0 | 0.00 | 0.00 | 0.00 | 73 | 996.9 |
| 20260904141247 | 16 | 237 | 1.6 | 8.0 | 0.00 | 0.00 | 0.00 | 72 | 996.9 |
| 20260904140746 | 16 | 265 | 1.6 | 6.4 | 0.00 | 0.00 | 0.00 | 72 | 997.0 |
| 20260904140246 | 16 | 223 | 1.6 | 6.4 | 0.00 | 0.00 | 0.00 | 71 | 997.1 |